BEL4MYR DIAP-EBBR

Flight info

Callsign BEL4MYR
Flight time N/A
Altitude 39000
Route TAVAL DCT TUSEK DCT SN DCT ARLEX DCT NUVOS DCT KIMRI DCT TUREB/N0474F400 DCT EKDOM DCT NAVKI/N0477F390 DCT IPUTA DCT SERAG DCT ERNEG DCT BIDOM DCT INAMA DCT TMS/N0470F400 DCT ATCHA DCT GHA/N0468F390 DCT BERIA DCT KAHIL DCT BSA DCT BJA DCT DOLIS/N0467F400 DCT NEVIX DCT ROVOT DCT MTL DCT LL702 DCT CLM DCT KOPOR DCT SOMIL DCT OBIVA DCT ARVOL
Aircraft A333/H-SDE3GHIJ2J3J5M1RVWXY/LB2D1

Departure

Time 2026-05-05 05:26
Airport Félix-Houphouët-Boigny International Airport (DIAP)

Arrival

Time N/A
Airport Brussels Airport (EBBR)
Time Latitude Longitude Altitude Speed Heading
2026-05-05 05:18 5.25253 -3.93139 35 ft 4 kts 309°
2026-05-05 05:18 5.25243 -3.93127 35 ft 3 kts 315°
2026-05-05 05:20 5.25255 -3.93127 35 ft 4 kts
2026-05-05 05:20 5.25337 -3.93095 34 ft 18 kts 22°
2026-05-05 05:20 5.25453 -3.93047 34 ft 19 kts 22°
2026-05-05 05:20 5.25577 -3.92996 34 ft 20 kts 22°
2026-05-05 05:21 5.25705 -3.92943 33 ft 20 kts 22°
2026-05-05 05:21 5.25837 -3.92886 33 ft 21 kts 23°
2026-05-05 05:21 5.25974 -3.92828 33 ft 22 kts 22°
2026-05-05 05:21 5.26116 -3.92771 32 ft 22 kts 21°
2026-05-05 05:22 5.26255 -3.92715 31 ft 19 kts 22°
2026-05-05 05:22 5.26365 -3.92671 31 ft 17 kts 22°
2026-05-05 05:22 5.26477 -3.92625 30 ft 18 kts 23°
2026-05-05 05:22 5.26595 -3.92576 30 ft 19 kts 22°
2026-05-05 05:23 5.26719 -3.92525 30 ft 20 kts 22°
2026-05-05 05:23 5.26849 -3.92472 29 ft 21 kts 22°
2026-05-05 05:23 5.26977 -3.92420 29 ft 20 kts 22°
2026-05-05 05:23 5.27095 -3.92370 29 ft 13 kts 24°
2026-05-05 05:24 5.27158 -3.92309 28 ft 13 kts 78°
2026-05-05 05:24 5.27146 -3.92224 30 ft 12 kts 97°
2026-05-05 05:24 5.27185 -3.92162 30 ft 11 kts 26°
2026-05-05 05:24 5.27265 -3.92135 30 ft 12 kts 12°
2026-05-05 05:25 5.27351 -3.92127 29 ft 12 kts 28°
2026-05-05 05:25 5.27345 -3.92086 29 ft 5 kts 161°
2026-05-05 05:25 5.27321 -3.92093 29 ft 3 kts 203°
2026-05-05 05:25 5.27292 -3.92106 30 ft 13 kts 203°
2026-05-05 05:26 5.27023 -3.92218 31 ft 72 kts 202°
2026-05-05 05:26 5.26380 -3.92481 29 ft 126 kts 202°
2026-05-05 05:26 5.25420 -3.92870 57 ft 170 kts 202°
2026-05-05 05:26 5.24315 -3.93322 748 ft 167 kts 202°
2026-05-05 05:27 5.23223 -3.93718 1474 ft 171 kts 191°
2026-05-05 05:27 5.22008 -3.93425 1725 ft 199 kts 143°
2026-05-05 05:27 5.21486 -3.90536 2199 ft 257 kts 65°
2026-05-05 05:28 5.22592 -3.89068 2754 ft 267 kts 46°
2026-05-05 05:28 5.24007 -3.87823 3454 ft 272 kts 41°
2026-05-05 05:28 5.25280 -3.86438 4169 ft 272 kts 59°
2026-05-05 05:28 5.26106 -3.84732 4952 ft 271 kts 70°
2026-05-05 05:29 5.26401 -3.83838 5332 ft 272 kts 74°